STARLINK-1494, 45760

Orbit data source: Space-Track

STARLINK-1494, 45760 is a payload satellite owned by SpaceX/Seattle (US) in LEO that was launched on Sat, 13 Jun 2020 UTC via an FALCON 9 launch vehicle from the Air Force Eastern Test Range (AFETR). Payload-class satellites include a variety of spacecraft equipped with specific instruments for various scientific and technological missions. These include communications satellites like Starlink; space stations such as the ISS; scientific satellites like the Hubble; Earth observation satellites from companies like Planet Labs, Umbra, and HawkEye 360; GPS; miniature CubeSats for education and research; and military/defense satellites.

Loading next visibility...
Identifier
45760, 2020-038AG
Orbit
LEO
Country
Flag of USUS
Related business
Manufacturer
SpaceX/Seattle
Mission
Partially operational Commercial Communications
Bus & Motor
STARLINK, Unknown motor
Mass
260 kg wet, ~248 kg dry
Launch date (UTC)
2020-06-13 (5 years ago)
Launch vehicle
FALCON 9
Launch site
Air Force Eastern Test Range (AFETR)
Object type
Payload
Rocket body
Debris
Shape & HBR
Box + 1 Pan, 10.1 m
Radar Cross Section
13.562 m², Large (>1 m²)

Expand to show TLE details & history
Last TLE update: 18 hours ago

TLE from 18 hours ago
0 STARLINK-1494
1 45760U 20038AG  25296.67488132  .00041205  00000-0  71039-3 0  9993
2 45760  53.0535  99.2760 0000863  17.8928 342.2111 15.50657368296007
Epoch: 2025-10-23T16:11Z
TLE epoch observation values (Epoch: 2025-10-23T16:11:49.746Z)
Latitude
0.00004°
Longitude
-176.01198°
Altitude
415.143 km
Speed
7.663 km/s
True Right ascension
06h 37m 06s
True Declination
0° 00' 00"
Sunlit
Object was in daylight at epoch
Visualization orbit readout
Latitude
Unknown
Longitude
Unknown
Altitude
Unknown
Speed
Unknown
Apparent Right ascension
Unknown
Apparent Declination
Unknown
Sunlit
N/A
Visualization observer readout
Local Sidereal Time
05:38:54
Azimuth
Unknown
Elevation
Unknown
Doppler factor
Unknown
Orbital elements
Apogee altitude
415.668 km
Perigee altitude
414.495 km
Semi-major axis
6,793.219 km
Eccentricity
0.00009
Inclination
53.0535°
RAAN
99.276°
Arg. of periapsis
17.8928°
True anomaly
342.20808°
Mean anomaly
342.2111°
Eccentric anomaly
342.20959°
Mean motion
3.87641 °/min
Orbital period
92.87 mins
BSTAR
0.00071039
Loading maneuver chart data...
Computing Atmospheric mass density...

Documentation

Showing up to 5 results
|